Regional Weather Roundup
Issued by NWS

Home | Current Version | Previous Version | Graphics & Text | Print | Product List | Glossary On
Versions: 1 2 3 4 5 6 7 8 9 10 11 12 13 14 15 16 17 18 19 20 21 22 23 24 25 26 27 28 29 30 31 32 33 34 35 36 37 38 39 40 41 42 43 44 45 46 47 48 49 50
000
ASUS45 KPSR 291610
RWRAZ

ARIZONA HOURLY REGIONAL WEATHER ROUNDUP
NATIONAL WEATHER SERVICE PHOENIX AZ
900 AM MST FRI APR 29 2016

NOTE: FAIR INDICATES FEW OR NO CLOUDS BELOW 12,000 FEET WITH NO
SIGNIFICANT WEATHER AND/OR OBSTRUCTIONS TO VISIBILITY.

AZZ001>003-036-291700-
NORTHWEST ARIZONA

CITY           SKY/WX    TMP DP  RH WIND       PRES   REMARKS
BULLHEAD CITY  SUNNY     64  48  55 CALM      29.94R
KINGMAN        SUNNY     56  44  64 CALM      29.95R
$$

AZZ004>008-015-016-018-291700-
NORTH CENTRAL ARIZONA

CITY           SKY/WX    TMP DP  RH WIND       PRES   REMARKS
GRAND CANYON   CLOUDY    41  37  86 VRB3      29.95R
WILLIAMS       CLOUDY    41  36  81 W5        30.03S
PRESCOTT       PTSUNNY   51  40  65 VRB3      29.95S
FLAGSTAFF      PTSUNNY   40  37  89 SW8       29.95R WCI  34
PAYSON         PTSUNNY   54  36  50 SW9       29.97S
PAGE           PTSUNNY   52  42  69 N6        29.88R
$$

AZZ009>014-017-291700-
NORTHEAST ARIZONA

CITY           SKY/WX    TMP DP  RH WIND       PRES   REMARKS
WINSLOW        CLOUDY    54  33  45 W12       29.91S
SAINT JOHNS    MOSUNNY   51  28  41 NW16      29.90S
WINDOW ROCK    CLOUDY    43  29  57 W13       29.91R
SHOW LOW       PTSUNNY   45  27  49 SW13G21   29.96R
$$

AZZ023-291700-
GREATER PHOENIX AREA

CITY           SKY/WX    TMP DP  RH WIND       PRES   REMARKS
PHOENIX        MOSUNNY   68  40  35 VRB3      29.88S
BUCKEYE        SUNNY     64  41  42 SE5       29.91S
GLENDALE       MOSUNNY   66  41  39 S9        29.90S
LUKE AFB       SUNNY     68  41  37 S13       29.87S
DEER VALLEY    PTSUNNY   64  38  38 S6        29.89S
SCOTTSDALE     PTSUNNY   66  37  34 E8        29.91R
MESA-FALCON    PTSUNNY  N/A N/A N/A MISG      29.88R
MESA-GATEWAY   MOSUNNY   64  55  72 S5        29.91R
CHANDLER       MOSUNNY   68  39  34 S13       29.90S
$$

AZZ027-028-291700-
SOUTHWEST MARICOPA COUNTY AND PINAL COUNTY

CITY           SKY/WX    TMP DP  RH WIND       PRES   REMARKS
CASA GRANDE    MOSUNNY   66  36  32 SW7       29.93S
GILA BEND      SUNNY     68  39  33 VRB6      29.89R
$$

AZZ503-504-507>509-291700-
SOUTHEAST ARIZONA

CITY           SKY/WX    TMP DP  RH WIND       PRES   REMARKS
TUCSON         SUNNY     62  33  33 CALM      29.98S
DAVIS-MONTHAN  SUNNY     60  33  35 VRB1      29.96S
RYAN FIELD     SUNNY     61  32  33 CALM      29.97S
NOGALES        SUNNY     57  29  34 CALM      29.99R
SIERRA VISTA   SUNNY     56  27  33 NW12      30.00R
DOUGLAS        SUNNY     57  25  29 MISG      29.98R
SAFFORD        MOSUNNY   62  33  33 NW17G26   29.91S
$$

AZZ020-021-025-026-031-291700-
SOUTHWEST ARIZONA

CITY           SKY/WX    TMP DP  RH WIND       PRES   REMARKS
YUMA           SUNNY     69  46  43 W9        29.91R
$$

CAZ031-033-041-043-047-048-061-291700-
SOUTHERN CALIFORNIA

CITY           SKY/WX    TMP DP  RH WIND       PRES   REMARKS
DOWNTOWN L.A.  CLOUDY    60  48  64 VRB3      30.02R
L.A. AIRPORT   PTSUNNY   61  49  64 SE6       30.03R
SAN DIEGO      PTSUNNY   62  48  60 SE6       30.06R
BURBANK        PTSUNNY   57  46  66 SE7       30.03R
ONTARIO        CLOUDY    55  46  71 SW5       30.03S
RIVERSIDE      PTSUNNY   58  46  64 E5        30.04S
PALM SPRINGS   MOSUNNY   68  42  38 NW10      29.92R
EL CENTRO NAS  MOSUNNY   72  39  30 SW6       29.91R
IMPERIAL       SUNNY     71  41  33 W9        29.89S
BLYTHE         SUNNY     70  40  33 CALM      29.89R
NEEDLES        SUNNY     67  52  58 VRB3      29.90R
$$

NVZ020-UTZ003-291700-
SOUTHERN NEVADA-UTAH

CITY           SKY/WX    TMP DP  RH WIND       PRES   REMARKS
LAS VEGAS      MOSUNNY   62  42  47 CALM      29.88R
SALT LAKE CITY PTSUNNY   49  32  52 E6        29.89R
$$

NMZ009-TXZ055-291700-
NEW MEXICO-WEST TEXAS

CITY           SKY/WX    TMP DP  RH WIND       PRES   REMARKS
ALBUQUERQUE    MOSUNNY   50  36  58 W13       29.87S
EL PASO        SUNNY     62  20  19 W14G30    29.89S
$$


........................KEY........................
SKY/WX - SKY CONDITION/WEATHER
TMP    - TEMPERATURE IN FAHRENHEIT
DP     - DEW POINT IN FAHRENHEIT
RH     - RELATIVE HUMIDITY IN PERCENT
WIND   - DIRECTION AND SPEED IN MILES PER HOUR (MPH)
VRB    - VARIABLE WIND DIRECTION
PRES   - MEAN SEA LEVEL PRESSURE IN INCHES OF MERCURY
         F - FALLING PRESSURE   R - RISING PRESSURE
         S - STEADY PRESSURE
VSB    - VISIBILITY IN MILES
HX     - HEAT INDEX IN FAHRENHEIT
WCI    - WIND CHILL INDEX IN FAHRENHEIT
TC     - TEMPERATURE IN CELSIUS WHICH IS ALSO KNOWN AS
         TEMPERATURE IN CENTIGRADE
AFB    - AIR FORCE BASE
         LUKE AFB IS LUKE AIR FORCE BASE
         DAVIS-MONTHAN IS DAVIS-MONTHAN AIR FORCE BASE
NAS    - NAVAL AIR STATION
         EL CENTRO NAS IS EL CENTRO NAVAL AIR STATION
N/A    - NOT AVAILABLE




USA.gov is the U.S. government's official web portal to all federal, state and local government web resources and services.